Other Surface Observations
Issued by NWS Charleston, SC

Home | Current Version | Previous Version | Text Only | Print | Product List | Glossary On
Versions: 1 2 3 4 5 6 7 8 9 10 11 12 13 14 15 16 17 18 19 20 21 22 23 24 25 26 27 28 29 30 31 32 33 34 35 36 37 38 39 40 41 42 43 44 45 46 47 48 49 50
000
SXUS52 KCHS 031927
OSOCHS

MARINE OBSERVATIONS
NATIONAL WEATHER SERVICE CHARLESTON SC
200 PM EST SAT DEC 03 2016

...DOWNTOWN CHARLESTON AND HARBOR...

CITY           SKY/WX    TMP DP  RH WIND       PRES   REMARKS
WATERFRONT PRK   N/A     55  39  54 NE6       30.21F

...LAKE MOULTRIE...

CITY           SKY/WX    TMP DP  RH WIND       PRES   REMARKS
PINOPOLIS        N/A     52  37  58 VRB2      30.15F

...LAKE AND SUPPLEMENTAL COASTAL OBSERVATIONS...

STATION/POSITION TIME  TEMP    WIND        PRES    WAVE   SWELL
                       AIR SEA DIR/SP/G            HT/PER HT/PER/DIR
                 (UTC) (F)     (DEG/KT/KT) (MB)    (FT/S) (FT/S/D)
FORT PULASKI     1900   56 62   60/ 12/ 14 1023.3
SAPELO ISLAND    1900   62      60/  8     1023.0
WINYAH BAY       1830   52     340/  5     1023.0F
LAKE MURRAY      1920   52      CALM  /  2 1023.0
ACE BASIN NERRS  1845   58      50/  2     1023.0S


...C-MAN AND BUOY OBSERVATIONS...

STATION/POSITION TIME  TEMP    WIND        PRES    WAVE   SWELL
                       AIR SEA DIR/SP/G            HT/PER HT/PER/DIR
                 (UTC) (F)     (DEG/KT/KT) (MB)    (FT/S) (FT/S/D)
BUOY 41004       1850   57 75   20/ 14/ 17 1022.2F   5/ 6   2/140/ 9
BUOY 41008       1850   62 65   50/ 12/ 14 1022.1F   3/ 5   2/110/ 9
FOLLY BEACH CMAN 1900   53      40/ 10/ 13 1024.0F
CAPERS NS BUOY   1908   53 62   60/ 10/ 14 1023.3F
FRIPP NS BUOY    1908   56 62   60/ 12/ 17 1023.2R
5E ST. MARYS GA  1900      66                N/A     3/ 5


STATION/POSITION TIME  TEMP    WIND        PRES    WAVE   SWELL
                       AIR SEA DIR/SP/G            HT/PER HT/PER/DIR
                 (UTC) (F)     (DEG/KT/KT) (MB)    (FT/S) (FT/S/D)
FRYING PAN BUOY  1910   52 73   20/ 14/ 17 1022.6
BUOY 41025       1850   60 74  360/ 16/ 21 1021.6F   5/ 8   3/ 30/ 8
CAPE LOOKOUT NC  1900   51     350/  8/ 11 1022.1F
BUOY 41002       1850   64 74  340/ 14/ 17 1019.6F   6/ 7   5/ 7
BUOY 41010       NOT AVBL
ST AUGUSTINE FL  1900   66 67   10/ 11/ 12 1021.8F

$$




USA.gov is the U.S. government's official web portal to all federal, state and local government web resources and services.